Regional Weather Roundup
Issued by NWS

Home | Current Version | Previous Version | Graphics & Text | Print | Product List | Glossary On
Versions: 1 2 3 4 5 6 7 8 9 10 11 12 13 14 15 16 17 18 19 20 21 22 23 24 25 26 27 28 29 30 31 32 33 34 35 36 37 38 39 40 41 42 43 44 45 46 47 48 49 50
000
ASUS43 KOAX 051610
RWRNE

WEATHER ROUNDUP FOR NEBRASKA
NATIONAL WEATHER SERVICE OMAHA NE
1000 AM CST THU MAR 05 2015

NOTES: SATELLITE DATA IS BEING USED TO AUGMENT CLOUD COVER ABOVE
       12000 FEET.
       "FAIR" INDICATES FEW OR NO CLOUDS BELOW 12,000 FEET WITH NO
       SIGNIFICANT WEATHER AND/OR OBSTRUCTIONS TO VISIBILITY.

  * THESE STATIONS DO NOT REPORT WEATHER SUCH AS RAIN...SNOW OR FOG.

NEZ001>004-019>022-054>056-051700-
NEBRASKA PANHANDLE

CITY           SKY/WX    TMP DP  RH WIND       PRES   REMARKS
SCOTTSBLUFF    MOSUNNY   25  13  60 NW8       30.22R WCI  16
ALLIANCE       MOSUNNY   29  13  51 W13       30.18S WCI  19
CHADRON        MOSUNNY   18   4  54 SW10      30.20S WCI   6
KIMBALL        SUNNY     29  16  57 W6        30.19R WCI  23
SIDNEY         SUNNY     31  13  47 W14       30.22R WCI  21
$$

NEZ057>060-069>072-079>082-051700-
SOUTHWEST NEBRASKA

CITY           SKY/WX    TMP DP  RH WIND       PRES   REMARKS
NORTH PLATTE   SUNNY     19   6  57 S10       30.32S WCI   7
IMPERIAL         N/A     25  14  63 SW8       30.29S WCI  16
LEXINGTON      SUNNY     18   6  58 S13       30.38F WCI   5
MCCOOK         SUNNY     22  10  60 SW5       30.36F WCI  16
OGALLALA       SUNNY     22  15  71 W7        30.27F WCI  14
$$

NEZ005>010-023>029-035>040-094-051700-
NORTH CENTRAL NEBRASKA

CITY           SKY/WX    TMP DP  RH WIND       PRES   REMARKS
VALENTINE      SUNNY     19   7  59 SW9       30.25F WCI   8
AINSWORTH      SUNNY     18   5  57 S17       30.27F WCI   3
BROKEN BOW     SUNNY     18   3  52 S15G23    30.35F WCI   4
O`NEILL        SUNNY     21   6  51 S12       30.36F WCI  10
ORD            SUNNY     18   2  49 S14       30.40S WCI   4
THEDFORD       SUNNY     20   7  58 SW12G17   30.28S WCI   7
$$

NEZ041-046>049-061>064-073>077-083>087-051700-
SOUTH CENTRAL NEBRASKA

CITY           SKY/WX    TMP DP  RH WIND       PRES   REMARKS
GRAND ISLAND   SUNNY     18   4  54 S10       30.46F WCI   6
AURORA         SUNNY     18   5  55 S10       30.46F WCI   6
HASTINGS       SUNNY     19   4  51 S13       30.44F WCI   6
HEBRON         SUNNY     20   3  48 SE7       30.51S WCI  11
HOLDREGE       SUNNY     17   4  57 S14       30.40F WCI   3
KEARNEY *      SUNNY     18   3  53 S15       30.42F WCI   3
YORK           SUNNY     18   3  53 S9        30.49F WCI   6
$$

NEZ011>018-030>034-042>045-051700-
NORTHEAST NEBRASKA

CITY           SKY/WX    TMP DP  RH WIND       PRES   REMARKS
NORFOLK        SUNNY     17   2  51 SW12      30.46F WCI   4
ALBION         SUNNY     18   1  47 SW12      30.44F WCI   6
BLAIR            N/A     15   1  54 S6        30.53F WCI   6
COLUMBUS *     SUNNY     16  -2  45 S10       30.50F WCI   3
FREMONT        SUNNY     16   1  50 SW5       30.54F WCI   9
TEKAMAH        SUNNY     14   2  58 S6        30.57S WCI   5
WAYNE          SUNNY     17   0  48 S10       30.48F WCI   4
$$

NEZ050>053-065>068-078-088>093-051700-
SOUTHEAST NEBRASKA

CITY           SKY/WX    TMP DP  RH WIND       PRES   REMARKS
LINCOLN        SUNNY     16   2  54 S7        30.56S WCI   6
OMAHA EPPLEY   SUNNY     12   0  58 VRB6      30.58S WCI   3
BEATRICE       SUNNY     17   2  52 SE5       30.54F WCI  10
FALLS CITY     SUNNY     15  -1  49 CALM      30.59S
NEBRASKA CITY  SUNNY     14  -4  45 S5        30.57S WCI   6
PLATTSMOUTH    SUNNY     13  -1  52 S6        30.56S WCI   4
$$

NEZ044-045-051>053-067-051700-
OMAHA AREA

CITY           SKY/WX    TMP DP  RH WIND       PRES   REMARKS
OMAHA EPPLEY   SUNNY     12   0  58 VRB6      30.58S WCI   3
BLAIR            N/A     15   1  54 S6        30.53F WCI   6
FREMONT        SUNNY     16   1  50 SW5       30.54F WCI   9
MILLARD        SUNNY     15   0  51 CALM      30.57S
OFFUTT AFB     SUNNY     13  -1  55 VRB6      30.57S WCI   4
PLATTSMOUTH    SUNNY     13  -1  52 S6        30.56S WCI   4
WAHOO          FAIR      16   0  49 S3        30.54F
$$



USA.gov is the U.S. government's official web portal to all federal, state and local government web resources and services.